N83B KSLC-KBJC

Flight info

Callsign N83B
Flight time 0h 48m
Altitude 39000
Route RUGGD3 PERTY CHE TOMSN9
Aircraft C25B/M-SDE2E3FGHRWXY/LB1

Departure

Time 2026-05-04 17:44
Airport Salt Lake City International Airport (KSLC)

Arrival

Time 2026-05-04 18:33
Airport Rocky Mountain Metropolitan Airport (KBJC)
Time Latitude Longitude Altitude Speed Heading
2026-05-04 17:33 40.77553 -111.95902 4229 ft 0 kts
2026-05-04 17:38 40.77576 -111.95916 4229 ft 7 kts 294°
2026-05-04 17:38 40.77579 -111.95995 4229 ft 10 kts 269°
2026-05-04 17:38 40.77579 -111.96032 4229 ft 3 kts 269°
2026-05-04 17:38 40.77614 -111.96064 4229 ft 11 kts
2026-05-04 17:39 40.77805 -111.96064 4229 ft 11 kts
2026-05-04 17:39 40.77869 -111.96013 4229 ft 12 kts 32°
2026-05-04 17:39 40.77957 -111.96003 4229 ft 14 kts 359°
2026-05-04 17:40 40.78060 -111.96003 4229 ft 16 kts
2026-05-04 17:40 40.78177 -111.96003 4229 ft 18 kts
2026-05-04 17:40 40.78306 -111.96005 4229 ft 19 kts 360°
2026-05-04 17:40 40.78447 -111.96004 4229 ft 21 kts
2026-05-04 17:41 40.78597 -111.96003 4229 ft 22 kts 360°
2026-05-04 17:41 40.78756 -111.96004 4230 ft 23 kts
2026-05-04 17:41 40.78923 -111.96003 4230 ft 25 kts
2026-05-04 17:41 40.79099 -111.96003 4230 ft 26 kts
2026-05-04 17:42 40.79282 -111.96004 4229 ft 27 kts 360°
2026-05-04 17:42 40.79472 -111.96003 4229 ft 28 kts 360°
2026-05-04 17:42 40.79664 -111.96005 4229 ft 27 kts 360°
2026-05-04 17:42 40.79824 -111.96003 4229 ft 16 kts 359°
2026-05-04 17:43 40.79888 -111.96030 4229 ft 10 kts 283°
2026-05-04 17:43 40.79889 -111.96052 4229 ft 3 kts 270°
2026-05-04 17:43 40.79881 -111.96150 4227 ft 17 kts 257°
2026-05-04 17:43 40.79835 -111.96210 4227 ft 15 kts 180°
2026-05-04 17:44 40.79474 -111.96209 4226 ft 100 kts 180°
2026-05-04 17:44 40.78524 -111.96209 4592 ft 163 kts 180°
2026-05-04 17:44 40.77240 -111.96238 5493 ft 203 kts 181°
2026-05-04 17:44 40.75796 -111.96268 6205 ft 210 kts 181°
2026-05-04 17:45 40.74321 -111.96273 6907 ft 213 kts 181°
2026-05-04 17:45 40.72833 -111.96256 7678 ft 216 kts 180°
2026-05-04 17:45 40.71326 -111.96202 8519 ft 216 kts 180°
2026-05-04 17:45 40.69827 -111.96075 9422 ft 216 kts 177°
2026-05-04 17:46 40.68302 -111.95936 10063 ft 226 kts 179°
2026-05-04 17:46 40.66676 -111.95810 10356 ft 249 kts 179°
2026-05-04 17:46 40.64873 -111.95675 10623 ft 269 kts 179°
2026-05-04 17:46 40.62961 -111.95549 10980 ft 282 kts 178°
2026-05-04 17:47 40.60992 -111.95385 11578 ft 283 kts 177°
2026-05-04 17:47 40.59057 -111.95093 12358 ft 280 kts 167°
2026-05-04 17:47 40.57278 -111.94010 12892 ft 288 kts 143°
2026-05-04 17:47 40.56022 -111.91925 13268 ft 300 kts 114°
2026-05-04 17:48 40.55698 -111.89211 13693 ft 307 kts 84°
2026-05-04 17:48 40.56400 -111.86570 14158 ft 311 kts 58°
2026-05-04 17:48 40.57793 -111.84396 14682 ft 311 kts 45°
2026-05-04 17:48 40.59373 -111.82446 15152 ft 313 kts 43°
2026-05-04 17:49 40.60946 -111.80436 15617 ft 316 kts 46°
2026-05-04 17:49 40.62478 -111.78348 16093 ft 319 kts 46°
2026-05-04 17:49 40.64028 -111.76245 16569 ft 321 kts 46°
2026-05-04 17:49 40.65599 -111.74145 17052 ft 323 kts 45°
2026-05-04 17:50 40.67195 -111.72036 17511 ft 326 kts 45°
2026-05-04 17:50 40.68764 -111.69916 17961 ft 328 kts 46°
2026-05-04 17:50 40.69843 -111.68458 18238 ft 330 kts 45°
2026-05-04 17:50 40.71990 -111.65592 18751 ft 333 kts 45°
2026-05-04 17:51 40.73613 -111.63399 19134 ft 335 kts 45°
2026-05-04 17:51 40.75258 -111.61202 19519 ft 338 kts 45°
2026-05-04 17:51 40.76906 -111.58974 19893 ft 340 kts 45°
2026-05-04 17:51 40.78005 -111.57488 20153 ft 342 kts 45°
2026-05-04 17:52 40.79679 -111.55243 20523 ft 344 kts 45°
2026-05-04 17:52 40.81359 -111.52977 20893 ft 346 kts 45°
2026-05-04 17:52 40.83049 -111.50693 21250 ft 349 kts 45°
2026-05-04 17:52 40.84753 -111.48395 21608 ft 351 kts 45°
2026-05-04 17:53 40.86467 -111.46075 21982 ft 354 kts 45°
2026-05-04 17:53 40.88108 -111.43631 22282 ft 358 kts 54°
2026-05-04 17:53 40.89297 -111.40732 22633 ft 360 kts 65°
2026-05-04 17:53 40.90011 -111.37555 22964 ft 363 kts 80°
2026-05-04 17:54 40.90205 -111.34214 23303 ft 366 kts 92°
2026-05-04 17:54 40.89868 -111.30868 23594 ft 368 kts 99°
2026-05-04 17:54 40.89501 -111.27549 23883 ft 369 kts 98°
2026-05-04 17:54 40.89095 -111.24189 24182 ft 371 kts 99°
2026-05-04 17:55 40.88685 -111.20811 24471 ft 373 kts 99°
2026-05-04 17:55 40.88281 -111.17409 24774 ft 375 kts 99°
2026-05-04 17:55 40.87879 -111.14011 25151 ft 374 kts 99°
2026-05-04 17:55 40.87476 -111.10616 25515 ft 374 kts 99°
2026-05-04 17:56 40.87065 -111.07214 25887 ft 374 kts 99°
2026-05-04 17:56 40.86661 -111.03819 26253 ft 375 kts 99°
2026-05-04 17:56 40.86249 -111.00419 26663 ft 374 kts 99°
2026-05-04 17:56 40.85840 -110.97031 27078 ft 374 kts 99°
2026-05-04 17:57 40.85427 -110.93642 27494 ft 374 kts 99°
2026-05-04 17:57 40.85021 -110.90248 27904 ft 374 kts 100°
2026-05-04 17:57 40.84606 -110.86859 28341 ft 374 kts 99°
2026-05-04 17:57 40.84193 -110.83462 28760 ft 375 kts 100°
2026-05-04 17:58 40.83776 -110.80069 29208 ft 375 kts 100°
2026-05-04 17:58 40.83360 -110.76661 29679 ft 376 kts 100°
2026-05-04 17:58 40.82941 -110.73255 30088 ft 377 kts 100°
2026-05-04 17:58 40.82521 -110.69830 30423 ft 379 kts 100°
2026-05-04 17:59 40.82090 -110.66375 30749 ft 382 kts 101°
2026-05-04 17:59 40.81664 -110.62900 31098 ft 385 kts 101°
2026-05-04 17:59 40.80795 -110.55916 31748 ft 391 kts 101°
2026-05-04 18:00 40.80351 -110.52367 32083 ft 393 kts 101°
2026-05-04 18:00 40.78467 -110.37340 33499 ft 405 kts 102°
2026-05-04 18:00 40.74673 -110.07580 36168 ft 414 kts 103°
2026-05-04 18:00 40.72998 -109.83879 38633 ft 421 kts 99°
2026-05-04 18:01 40.72614 -109.80058 38822 ft 422 kts 103°
2026-05-04 18:01 40.71965 -109.72211 38846 ft 435 kts 96°
2026-05-04 18:02 40.71115 -109.60236 38868 ft 441 kts 99°
2026-05-04 18:02 40.70546 -109.52150 38873 ft 444 kts 98°
2026-05-04 18:03 40.69940 -109.44089 38871 ft 446 kts 98°
2026-05-04 18:03 40.69331 -109.35941 38867 ft 448 kts 98°
2026-05-04 18:04 40.68712 -109.27754 38852 ft 450 kts 98°
2026-05-04 18:05 40.67770 -109.15440 38833 ft 450 kts 98°
2026-05-04 18:05 40.67133 -109.07229 38832 ft 450 kts 98°
2026-05-04 18:06 40.66168 -108.94910 38835 ft 451 kts 99°
2026-05-04 18:06 40.65516 -108.86685 38836 ft 452 kts 99°
2026-05-04 18:07 40.64860 -108.78453 38836 ft 452 kts 99°
2026-05-04 18:07 40.64195 -108.70233 38835 ft 452 kts 99°
2026-05-04 18:08 40.63529 -108.62055 38838 ft 452 kts 99°
2026-05-04 18:08 40.62853 -108.53817 38836 ft 453 kts 99°
2026-05-04 18:09 40.61481 -108.37315 38841 ft 454 kts 99°
2026-05-04 18:10 40.60785 -108.29061 38846 ft 455 kts 99°
2026-05-04 18:10 40.60081 -108.20785 38848 ft 455 kts 99°
2026-05-04 18:11 40.59371 -108.12511 38854 ft 455 kts 99°
2026-05-04 18:11 40.58657 -108.04244 38859 ft 455 kts 99°
2026-05-04 18:12 40.57935 -107.95966 38872 ft 456 kts 99°
2026-05-04 18:12 40.57209 -107.87736 38904 ft 456 kts 99°
2026-05-04 18:13 40.56474 -107.79449 38937 ft 457 kts 99°
2026-05-04 18:14 40.55359 -107.66984 38976 ft 458 kts 99°
2026-05-04 18:14 40.54608 -107.58677 38987 ft 457 kts 99°
2026-05-04 18:15 40.53084 -107.42077 38990 ft 457 kts 99°
2026-05-04 18:16 40.52313 -107.33776 39012 ft 458 kts 99°
2026-05-04 18:16 40.52035 -107.25415 39008 ft 459 kts 90°
2026-05-04 18:17 40.52094 -107.12898 39010 ft 459 kts 90°
2026-05-04 18:18 40.52153 -107.00299 38999 ft 460 kts 90°
2026-05-04 18:18 40.52175 -106.91898 39010 ft 460 kts 90°
2026-05-04 18:19 40.52201 -106.79275 39012 ft 461 kts 90°
2026-05-04 18:19 40.52211 -106.70826 38667 ft 469 kts 91°
2026-05-04 18:20 40.52215 -106.66510 37987 ft 474 kts 91°
2026-05-04 18:20 40.52216 -106.62178 37345 ft 475 kts 90°
2026-05-04 18:20 40.52215 -106.57838 36701 ft 475 kts 90°
2026-05-04 18:20 40.52216 -106.53541 36062 ft 476 kts 90°
2026-05-04 18:21 40.52209 -106.49184 35420 ft 476 kts 90°
2026-05-04 18:21 40.52207 -106.44831 34770 ft 476 kts 90°
2026-05-04 18:21 40.52199 -106.40476 34123 ft 476 kts 89°
2026-05-04 18:21 40.52151 -106.19541 31066 ft 451 kts 90°
2026-05-04 18:22 40.52002 -105.89124 26672 ft 394 kts 90°
2026-05-04 18:22 40.51806 -105.67989 23607 ft 376 kts 97°
2026-05-04 18:22 40.51000 -105.64747 23066 ft 372 kts 115°
2026-05-04 18:22 40.49804 -105.61767 22572 ft 366 kts 127°
2026-05-04 18:23 40.48204 -105.59208 22093 ft 359 kts 136°
2026-05-04 18:23 40.46370 -105.57020 21625 ft 355 kts 141°
2026-05-04 18:23 40.36735 -105.45005 19116 ft 348 kts 139°
2026-05-04 18:23 40.34974 -105.42841 18735 ft 345 kts 139°
2026-05-04 18:24 40.26525 -105.32367 16670 ft 333 kts 138°
2026-05-04 18:24 40.13177 -105.15908 13557 ft 317 kts 137°
2026-05-04 18:24 40.03249 -105.03721 11367 ft 311 kts 138°
2026-05-04 18:24 40.01676 -105.01796 11092 ft 309 kts 138°
2026-05-04 18:25 40.00121 -104.99889 10958 ft 305 kts 138°
2026-05-04 18:25 39.98558 -104.97999 10944 ft 308 kts 138°
2026-05-04 18:25 39.96986 -104.96062 10945 ft 312 kts 137°
2026-05-04 18:25 39.95395 -104.94121 10944 ft 312 kts 138°
2026-05-04 18:26 39.93872 -104.92247 10836 ft 291 kts 138°
2026-05-04 18:26 39.92425 -104.90494 10480 ft 279 kts 139°
2026-05-04 18:26 39.91033 -104.88797 10104 ft 270 kts 138°
2026-05-04 18:26 39.89674 -104.87151 9770 ft 263 kts 138°
2026-05-04 18:27 39.88369 -104.85570 9389 ft 256 kts 140°
2026-05-04 18:27 39.86816 -104.84542 8984 ft 246 kts 173°
2026-05-04 18:27 39.85198 -104.84801 8587 ft 236 kts 206°
2026-05-04 18:27 39.83811 -104.85871 8202 ft 230 kts 216°
2026-05-04 18:28 39.82493 -104.87025 7817 ft 227 kts 218°
2026-05-04 18:28 39.81337 -104.88361 7441 ft 220 kts 239°
2026-05-04 18:28 39.80933 -104.90226 7074 ft 215 kts 265°
2026-05-04 18:28 39.80867 -104.92155 6915 ft 211 kts 278°
2026-05-04 18:29 39.81510 -104.93847 6939 ft 211 kts 307°
2026-05-04 18:29 39.82358 -104.95398 6953 ft 210 kts 302°
2026-05-04 18:29 39.83187 -104.96961 6967 ft 211 kts 304°
2026-05-04 18:29 39.84018 -104.98532 6978 ft 206 kts 302°
2026-05-04 18:30 39.85482 -105.01316 7017 ft 174 kts 302°
2026-05-04 18:30 39.86127 -105.02571 7006 ft 160 kts 303°
2026-05-04 18:30 39.86761 -105.03702 6897 ft 150 kts 302°
2026-05-04 18:31 39.87342 -105.04788 6711 ft 142 kts 301°
2026-05-04 18:31 39.87862 -105.05835 6562 ft 135 kts 300°
2026-05-04 18:31 39.88374 -105.06837 6390 ft 130 kts 301°
2026-05-04 18:31 39.88874 -105.07777 6224 ft 127 kts 300°
2026-05-04 18:32 39.89372 -105.08737 6081 ft 125 kts 301°
2026-05-04 18:32 39.89855 -105.09657 5881 ft 121 kts 301°
2026-05-04 18:32 39.90316 -105.10535 5739 ft 116 kts 302°
2026-05-04 18:32 39.90707 -105.11278 5745 ft 74 kts 304°
2026-05-04 18:33 39.90898 -105.11639 5754 ft 34 kts 304°
2026-05-04 18:33 39.91003 -105.11839 5756 ft 22 kts 305°
2026-05-04 18:33 39.91044 -105.11858 5757 ft 8 kts 92°
2026-05-04 18:33 39.91033 -105.11762 5756 ft 13 kts 97°
2026-05-04 18:34 39.91021 -105.11627 5757 ft 16 kts 111°
2026-05-04 18:34 39.90956 -105.11497 5754 ft 18 kts 125°
2026-05-04 18:34 39.90916 -105.11394 5754 ft 11 kts 63°
2026-05-04 18:34 39.90970 -105.11337 5755 ft 10 kts 52°
2026-05-04 18:35 39.90972 -105.11293 5755 ft 6 kts 124°
2026-05-04 18:35 39.90966 -105.11280 5755 ft 0 kts 125°